Time,TemperatureF,DewpointF,PressureIn,WindDirection,WindDirectionDegrees,WindSpeedMPH,WindSpeedGustMPH,Humidity,HourlyPrecipIn,Conditions,Clouds,dailyrainin,SoftwareType,DateUTC
2013-08-02 00:03:00,64.0,-99.9,29.86,SW,230,3.0,6.0,-999,-99.99,,,-99.99,,2013-08-02 05:03:00,
2013-08-02 00:12:00,64.0,-99.9,29.86,SW,230,3.0,6.0,-999,-99.99,,,-99.99,,2013-08-02 05:12:00,
2013-08-02 00:22:00,64.0,-99.9,29.86,SW,230,3.0,6.0,-999,-99.99,,,-99.99,,2013-08-02 05:22:00,
2013-08-02 00:32:00,64.0,-99.9,29.86,SW,230,3.0,6.0,-999,-99.99,,,-99.99,,2013-08-02 05:32:00,
2013-08-02 00:40:00,64.0,-99.9,29.85,SW,230,3.0,5.0,-999,-99.99,,,-99.99,,2013-08-02 05:40:00,
2013-08-02 01:02:00,64.0,-99.9,29.85,SW,230,3.0,5.0,-999,-99.99,,,-99.99,,2013-08-02 06:02:00,
2013-08-02 01:12:00,64.0,-99.9,29.85,SW,230,3.0,5.0,-999,-99.99,,,-99.99,,2013-08-02 06:12:00,
2013-08-02 01:22:00,64.0,-99.9,29.85,SW,230,3.0,5.0,-999,-99.99,,,-99.99,,2013-08-02 06:22:00,
2013-08-02 01:33:00,64.0,-99.9,29.85,SW,230,3.0,5.0,-999,-99.99,,,-99.99,,2013-08-02 06:33:00,
2013-08-02 01:40:00,62.0,-99.9,29.83,SW,230,6.0,7.0,-999,-99.99,,,-99.99,,2013-08-02 06:40:00,
2013-08-02 02:02:00,62.0,-99.9,29.83,SW,230,6.0,7.0,-999,-99.99,,,-99.99,,2013-08-02 07:02:00,
2013-08-02 02:12:00,62.0,-99.9,29.83,SW,230,6.0,7.0,-999,-99.99,,,-99.99,,2013-08-02 07:12:00,
2013-08-02 02:22:00,62.0,-99.9,29.83,SW,230,6.0,7.0,-999,-99.99,,,-99.99,,2013-08-02 07:22:00,
2013-08-02 02:33:00,62.0,-99.9,29.83,SW,230,6.0,7.0,-999,-99.99,,,-99.99,,2013-08-02 07:33:00,
2013-08-02 02:40:00,63.0,-99.9,29.81,WSW,240,2.0,5.0,-999,-99.99,,,-99.99,,2013-08-02 07:40:00,
2013-08-02 03:02:00,63.0,-99.9,29.81,WSW,240,2.0,5.0,-999,-99.99,,,-99.99,,2013-08-02 08:02:00,
2013-08-02 03:12:00,63.0,-99.9,29.81,WSW,240,2.0,5.0,-999,-99.99,,,-99.99,,2013-08-02 08:12:00,
2013-08-02 03:22:00,63.0,-99.9,29.81,WSW,240,2.0,5.0,-999,-99.99,,,-99.99,,2013-08-02 08:22:00,
2013-08-02 03:33:00,63.0,-99.9,29.81,WSW,240,2.0,5.0,-999,-99.99,,,-99.99,,2013-08-02 08:33:00,
2013-08-02 03:40:00,63.0,-99.9,29.81,SSW,200,5.0,6.0,-999,-99.99,,,-99.99,,2013-08-02 08:40:00,
2013-08-02 04:02:00,63.0,-99.9,29.81,SSW,200,5.0,6.0,-999,-99.99,,,-99.99,,2013-08-02 09:02:00,
2013-08-02 04:12:00,63.0,-99.9,29.81,SSW,200,5.0,6.0,-999,-99.99,,,-99.99,,2013-08-02 09:12:00,
2013-08-02 04:23:00,63.0,-99.9,29.81,SSW,200,5.0,6.0,-999,-99.99,,,-99.99,,2013-08-02 09:23:00,
2013-08-02 04:33:00,63.0,-99.9,29.81,SSW,200,5.0,6.0,-999,-99.99,,,-99.99,,2013-08-02 09:33:00,
2013-08-02 04:40:00,65.0,-99.9,29.83,NNW,330,9.0,13.0,-999,-99.99,,,-99.99,,2013-08-02 09:40:00,
2013-08-02 05:03:00,65.0,-99.9,29.83,NNW,330,9.0,13.0,-999,-99.99,,,-99.99,,2013-08-02 10:03:00,
2013-08-02 05:12:00,65.0,-99.9,29.83,NNW,330,9.0,13.0,-999,-99.99,,,-99.99,,2013-08-02 10:12:00,
2013-08-02 05:23:00,65.0,-99.9,29.83,NNW,330,9.0,13.0,-999,-99.99,,,-99.99,,2013-08-02 10:23:00,
2013-08-02 05:33:00,65.0,-99.9,29.83,NNW,330,9.0,13.0,-999,-99.99,,,-99.99,,2013-08-02 10:33:00,
2013-08-02 05:40:00,63.0,-99.9,29.83,SSW,210,3.0,7.0,-999,-99.99,,,-99.99,,2013-08-02 10:40:00,
2013-08-02 06:02:00,63.0,-99.9,29.83,SSW,210,3.0,7.0,-999,-99.99,,,-99.99,,2013-08-02 11:02:00,
2013-08-02 06:12:00,63.0,-99.9,29.83,SSW,210,3.0,7.0,-999,-99.99,,,-99.99,,2013-08-02 11:12:00,
2013-08-02 06:23:00,63.0,-99.9,29.83,SSW,210,3.0,7.0,-999,-99.99,,,-99.99,,2013-08-02 11:23:00,
2013-08-02 06:33:00,63.0,-99.9,29.83,SSW,210,3.0,7.0,-999,-99.99,,,-99.99,,2013-08-02 11:33:00,
2013-08-02 07:02:00,64.0,-99.9,29.84,NW,310,10.0,17.0,-999,-99.99,,,-99.99,,2013-08-02 12:02:00,
2013-08-02 07:12:00,64.0,-99.9,29.84,NW,310,10.0,17.0,-999,-99.99,,,-99.99,,2013-08-02 12:12:00,
2013-08-02 07:33:00,62.0,-99.9,29.81,West,270,1.0,17.0,-999,-99.99,,,-99.99,,2013-08-02 12:33:00,
2013-08-02 07:40:00,62.0,-99.9,29.81,SSW,210,2.0,3.0,-999,-99.99,,,-99.99,,2013-08-02 12:40:00,
2013-08-02 07:43:00,62.0,-99.9,29.81,West,270,1.0,17.0,-999,-99.99,,,-99.99,,2013-08-02 12:43:00,
2013-08-02 07:52:00,62.0,-99.9,29.81,West,270,1.0,17.0,-999,-99.99,,,-99.99,,2013-08-02 12:52:00,
2013-08-02 08:03:00,62.0,-99.9,29.81,SSW,210,2.0,3.0,-999,-99.99,,,-99.99,,2013-08-02 13:03:00,
2013-08-02 08:12:00,62.0,-99.9,29.81,SSW,210,2.0,3.0,-999,-99.99,,,-99.99,,2013-08-02 13:12:00,
2013-08-02 08:23:00,62.0,-99.9,29.81,SSW,210,2.0,3.0,-999,-99.99,,,-99.99,,2013-08-02 13:23:00,
2013-08-02 08:33:00,62.0,-99.9,29.81,SSW,210,2.0,3.0,-999,-99.99,,,-99.99,,2013-08-02 13:33:00,
2013-08-02 08:40:00,67.0,-99.9,29.82,SSW,210,5.0,8.0,-999,-99.99,,,-99.99,,2013-08-02 13:40:00,
2013-08-02 09:02:00,67.0,-99.9,29.82,SSW,210,5.0,8.0,-999,-99.99,,,-99.99,,2013-08-02 14:02:00,
2013-08-02 09:12:00,67.0,-99.9,29.82,SSW,210,5.0,8.0,-999,-99.99,,,-99.99,,2013-08-02 14:12:00,
2013-08-02 09:23:00,67.0,-99.9,29.82,SSW,210,5.0,8.0,-999,-99.99,,,-99.99,,2013-08-02 14:23:00,
2013-08-02 09:32:00,67.0,-99.9,29.82,SSW,210,5.0,8.0,-999,-99.99,,,-99.99,,2013-08-02 14:32:00,
2013-08-02 09:40:00,70.0,-99.9,29.82,WNW,300,5.0,10.0,-999,-99.99,,,-99.99,,2013-08-02 14:40:00,
2013-08-02 10:03:00,70.0,-99.9,29.82,WNW,300,5.0,10.0,-999,-99.99,,,-99.99,,2013-08-02 15:03:00,
2013-08-02 10:12:00,70.0,-99.9,29.82,WNW,300,5.0,10.0,-999,-99.99,,,-99.99,,2013-08-02 15:12:00,
2013-08-02 10:22:00,70.0,-99.9,29.82,WNW,300,5.0,10.0,-999,-99.99,,,-99.99,,2013-08-02 15:22:00,
2013-08-02 10:32:00,70.0,-99.9,29.82,WNW,300,5.0,10.0,-999,-99.99,,,-99.99,,2013-08-02 15:32:00,
2013-08-02 10:40:00,66.0,-99.9,29.83,NW,320,9.0,15.0,-999,-99.99,,,-99.99,,2013-08-02 15:40:00,
2013-08-02 11:02:00,66.0,-99.9,29.83,NW,320,9.0,15.0,-999,-99.99,,,-99.99,,2013-08-02 16:02:00,
2013-08-02 11:12:00,66.0,-99.9,29.83,NW,320,9.0,15.0,-999,-99.99,,,-99.99,,2013-08-02 16:12:00,
2013-08-02 11:22:00,66.0,-99.9,29.83,NW,320,9.0,15.0,-999,-99.99,,,-99.99,,2013-08-02 16:22:00,
2013-08-02 11:32:00,66.0,-99.9,29.83,NW,320,9.0,15.0,-999,-99.99,,,-99.99,,2013-08-02 16:32:00,
2013-08-02 11:40:00,68.0,-99.9,29.83,NW,320,9.0,14.0,-999,-99.99,,,-99.99,,2013-08-02 16:40:00,
2013-08-02 12:02:00,68.0,-99.9,29.83,NW,320,9.0,14.0,-999,-99.99,,,-99.99,,2013-08-02 17:02:00,
2013-08-02 12:12:00,68.0,-99.9,29.83,NW,320,9.0,14.0,-999,-99.99,,,-99.99,,2013-08-02 17:12:00,
2013-08-02 12:35:00,68.0,-99.9,29.83,NW,320,9.0,14.0,-999,-99.99,,,-99.99,,2013-08-02 17:35:00,
2013-08-02 12:40:00,69.0,-99.9,29.83,NNW,330,8.0,10.0,-999,-99.99,,,-99.99,,2013-08-02 17:40:00,
2013-08-02 13:12:00,69.0,-99.9,29.83,NNW,330,8.0,10.0,-999,-99.99,,,-99.99,,2013-08-02 18:12:00,
2013-08-02 13:22:00,69.0,-99.9,29.83,NNW,330,8.0,10.0,-999,-99.99,,,-99.99,,2013-08-02 18:22:00,
2013-08-02 13:32:00,69.0,-99.9,29.83,NNW,330,8.0,10.0,-999,-99.99,,,-99.99,,2013-08-02 18:32:00,
2013-08-02 13:40:00,69.0,-99.9,29.83,NNW,340,8.0,9.0,-999,-99.99,,,-99.99,,2013-08-02 18:40:00,
2013-08-02 14:02:00,69.0,-99.9,29.83,NNW,340,8.0,9.0,-999,-99.99,,,-99.99,,2013-08-02 19:02:00,
2013-08-02 14:12:00,69.0,-99.9,29.83,NNW,340,8.0,9.0,-999,-99.99,,,-99.99,,2013-08-02 19:12:00,
2013-08-02 14:22:00,69.0,-99.9,29.83,NNW,340,8.0,9.0,-999,-99.99,,,-99.99,,2013-08-02 19:22:00,
2013-08-02 14:33:00,69.0,-99.9,29.83,NNW,340,8.0,9.0,-999,-99.99,,,-99.99,,2013-08-02 19:33:00,
2013-08-02 14:40:00,73.0,-99.9,29.83,NW,310,8.0,10.0,-999,-99.99,,,-99.99,,2013-08-02 19:40:00,
2013-08-02 15:02:00,73.0,-99.9,29.83,NW,310,8.0,10.0,-999,-99.99,,,-99.99,,2013-08-02 20:02:00,
2013-08-02 15:12:00,73.0,-99.9,29.83,NW,310,8.0,10.0,-999,-99.99,,,-99.99,,2013-08-02 20:12:00,
2013-08-02 15:23:00,73.0,-99.9,29.83,NW,310,8.0,10.0,-999,-99.99,,,-99.99,,2013-08-02 20:23:00,
2013-08-02 15:33:00,73.0,-99.9,29.83,NW,310,8.0,10.0,-999,-99.99,,,-99.99,,2013-08-02 20:33:00,
2013-08-02 15:40:00,76.0,-99.9,29.83,NNW,330,7.0,12.0,-999,-99.99,,,-99.99,,2013-08-02 20:40:00,
2013-08-02 16:03:00,76.0,-99.9,29.83,NNW,330,7.0,12.0,-999,-99.99,,,-99.99,,2013-08-02 21:03:00,
2013-08-02 16:12:00,76.0,-99.9,29.83,NNW,330,7.0,12.0,-999,-99.99,,,-99.99,,2013-08-02 21:12:00,
2013-08-02 16:22:00,76.0,-99.9,29.83,NNW,330,7.0,12.0,-999,-99.99,,,-99.99,,2013-08-02 21:22:00,
2013-08-02 16:33:00,76.0,-99.9,29.83,NNW,330,7.0,12.0,-999,-99.99,,,-99.99,,2013-08-02 21:33:00,
2013-08-02 16:40:00,76.0,-99.9,29.82,West,260,5.0,9.0,-999,-99.99,,,-99.99,,2013-08-02 21:40:00,
2013-08-02 17:03:00,76.0,-99.9,29.82,West,260,5.0,9.0,-999,-99.99,,,-99.99,,2013-08-02 22:03:00,
2013-08-02 17:12:00,76.0,-99.9,29.82,West,260,5.0,9.0,-999,-99.99,,,-99.99,,2013-08-02 22:12:00,
2013-08-02 17:22:00,76.0,-99.9,29.82,West,260,5.0,9.0,-999,-99.99,,,-99.99,,2013-08-02 22:22:00,
2013-08-02 17:33:00,76.0,-99.9,29.82,West,260,5.0,9.0,-999,-99.99,,,-99.99,,2013-08-02 22:33:00,
2013-08-02 17:40:00,74.0,-99.9,29.83,WNW,300,8.0,10.0,-999,-99.99,,,-99.99,,2013-08-02 22:40:00,
2013-08-02 18:03:00,74.0,-99.9,29.83,WNW,300,8.0,10.0,-999,-99.99,,,-99.99,,2013-08-02 23:03:00,
2013-08-02 18:12:00,74.0,-99.9,29.83,WNW,300,8.0,10.0,-999,-99.99,,,-99.99,,2013-08-02 23:12:00,
2013-08-02 18:22:00,74.0,-99.9,29.83,WNW,300,8.0,10.0,-999,-99.99,,,-99.99,,2013-08-02 23:22:00,
2013-08-02 18:30:00,72.0,-99.9,29.84,NW,310,13.0,16.0,-999,-99.99,,,-99.99,,2013-08-02 23:30:00,
2013-08-02 18:32:00,74.0,-99.9,29.83,WNW,300,8.0,10.0,-999,-99.99,,,-99.99,,2013-08-02 23:32:00,
2013-08-02 19:02:00,72.0,-99.9,29.84,NW,310,13.0,16.0,-999,-99.99,,,-99.99,,2013-08-03 00:02:00,
2013-08-02 19:12:00,72.0,-99.9,29.84,NW,310,13.0,16.0,-999,-99.99,,,-99.99,,2013-08-03 00:12:00,
2013-08-02 19:22:00,72.0,-99.9,29.84,NW,310,13.0,16.0,-999,-99.99,,,-99.99,,2013-08-03 00:22:00,
2013-08-02 19:40:00,69.0,-99.9,29.88,North,350,13.0,16.0,-999,-99.99,,,-99.99,,2013-08-03 00:40:00,
2013-08-02 20:03:00,69.0,-99.9,29.88,North,350,13.0,16.0,-999,-99.99,,,-99.99,,2013-08-03 01:03:00,
2013-08-02 20:12:00,69.0,-99.9,29.88,North,350,13.0,16.0,-999,-99.99,,,-99.99,,2013-08-03 01:12:00,
2013-08-02 20:22:00,69.0,-99.9,29.88,North,350,13.0,16.0,-999,-99.99,,,-99.99,,2013-08-03 01:22:00,
2013-08-02 20:33:00,69.0,-99.9,29.88,North,350,13.0,16.0,-999,-99.99,,,-99.99,,2013-08-03 01:33:00,
2013-08-02 20:40:00,66.0,-99.9,29.90,North,0,0.0,1.0,-999,-99.99,,,-99.99,,2013-08-03 01:40:00,
2013-08-02 21:02:00,66.0,-99.9,29.90,North,0,0.0,1.0,-999,-99.99,,,-99.99,,2013-08-03 02:02:00,
2013-08-02 21:12:00,66.0,-99.9,29.90,North,0,0.0,1.0,-999,-99.99,,,-99.99,,2013-08-03 02:12:00,
2013-08-02 21:22:00,66.0,-99.9,29.90,North,0,0.0,1.0,-999,-99.99,,,-99.99,,2013-08-03 02:22:00,
2013-08-02 21:32:00,66.0,-99.9,29.90,North,0,0.0,1.0,-999,-99.99,,,-99.99,,2013-08-03 02:32:00,
2013-08-02 21:40:00,64.0,-99.9,29.93,North,0,0.0,2.0,-999,-99.99,,,-99.99,,2013-08-03 02:40:00,
2013-08-02 22:02:00,64.0,-99.9,29.93,North,0,0.0,2.0,-999,-99.99,,,-99.99,,2013-08-03 03:02:00,
2013-08-02 22:22:00,64.0,-99.9,29.93,North,0,0.0,2.0,-999,-99.99,,,-99.99,,2013-08-03 03:22:00,
2013-08-02 22:32:00,64.0,-99.9,29.93,North,0,0.0,2.0,-999,-99.99,,,-99.99,,2013-08-03 03:32:00,
2013-08-02 22:40:00,62.0,-99.9,29.94,North,0,0.0,1.0,-999,-99.99,,,-99.99,,2013-08-03 03:40:00,
2013-08-02 23:02:00,62.0,-99.9,29.94,North,0,0.0,1.0,-999,-99.99,,,-99.99,,2013-08-03 04:02:00,
2013-08-02 23:12:00,62.0,-99.9,29.94,North,0,0.0,1.0,-999,-99.99,,,-99.99,,2013-08-03 04:12:00,
2013-08-02 23:22:00,62.0,-99.9,29.94,North,0,0.0,1.0,-999,-99.99,,,-99.99,,2013-08-03 04:22:00,
2013-08-02 23:32:00,62.0,-99.9,29.94,North,0,0.0,1.0,-999,-99.99,,,-99.99,,2013-08-03 04:32:00,
2013-08-02 23:40:00,62.0,-99.9,29.94,North,0,0.0,0.0,-999,-99.99,,,-99.99,,2013-08-03 04:40:00,